Marshall, MI

5:28 PM EDT on August 30, 2016 (GMT -0400)
Brooks

Weather History for KRMY - March, 2013

Change the Weather History Date:

Wednesday, March 20, 2013

  Actual Average (KBTL) Record (KBTL)
Temperature  
Mean Temperature 20 °F 37 °F  
Max Temperature 25 °F 48 °F 81 °F (2012)
Min Temperature 13 °F 26 °F 11 °F (2013)
Degree Days  
Heating Degree Days 46 28  
Month to date heating degree days 632  
Since 1 July heating degree days 5597  
Cooling Degree Days 0 0  
Month to date cooling degree days 0  
Year to date cooling degree days 0  
Moisture  
Dew Point 13 °F    
Average Humidity 71    
Maximum Humidity 87    
Minimum Humidity 58    
Precipitation  
Precipitation 0.00 in 0.05 in 0.56 in (2004)
Month to date precipitation 1.13  
Year to date precipitation 4.13  
Sea Level Pressure  
Sea Level Pressure 29.93 in    
Wind  
Wind Speed 12 mph (West)    
Max Wind Speed 18 mph    
Max Gust Speed 25 mph    
Visibility 9 miles    
Events Snow    
T = Trace of Precipitation, MM = Missing Value Source: NWS Daily Summary

Daily Weather History Graph

Daily Weather History Graph

Search for Another Location

Airport or City:

Trip Planner

Search our weather history database for the weather conditions in past years. The results will help you decide how hot, cold, wet, or windy it might be!

Date:

Astronomy

Mar. 20, 2013 Rise Set
Actual Time 7:42 AM EDT 7:52 PM EDT
Civil Twilight 7:14 AM EDT 8:20 PM EDT
Nautical Twilight 6:42 AM EDT 8:53 PM EDT
Astronomical Twilight 6:08 AM EDT 9:26 PM EDT
Moon 1:20 PM EDT (3/20) 3:27 AM EDT (3/20)
Length of Visible Light 13h 05m
Length of Day
12h 09m
First Quarter, 59% of the Moon is Illuminated
Mar 20
First Quarter
Mar 27
Full
Apr 3
Last Quarter
Apr 10
New
Apr 18
First Quarter

Hourly Weather History & Observations

Time (EDT) Temp. Windchill Dew Point Humidity Pressure Visibility Wind Dir Wind Speed Gust Speed Precip Events Conditions
12:14 AM 24.4 °F 14.2 °F 14.7 °F 67% 29.94 in 10.0 mi West 10.4 mph - N/A   Clear
12:33 AM 25.3 °F 14.1 °F 14.5 °F 64% 29.94 in 10.0 mi West 12.7 mph - N/A   Clear
12:53 AM 25.3 °F 13.1 °F 14.4 °F 63% 29.94 in 10.0 mi West 15.0 mph - N/A   Clear
1:33 AM 25.2 °F 14.4 °F 14.5 °F 64% 29.93 in 10.0 mi West 11.5 mph - N/A   Mostly Cloudy
1:54 AM 25.2 °F 13.9 °F 14.5 °F 64% 29.93 in 10.0 mi West 12.7 mph 18.4 mph N/A   Mostly Cloudy
2:14 AM 25.5 °F 14.9 °F 14.7 °F 64% 29.93 in 10.0 mi West 11.5 mph 21.9 mph N/A   Overcast
2:33 AM 25.5 °F 14.3 °F 14.7 °F 64% 29.92 in 10.0 mi West 12.7 mph 18.4 mph N/A   Overcast
2:54 AM 25.3 °F 13.1 °F 14.7 °F 64% 29.93 in 10.0 mi West 15.0 mph 24.2 mph N/A   Overcast
3:13 AM 24.6 °F 13.8 °F 14.2 °F 65% 29.92 in 10.0 mi West 11.5 mph 18.4 mph N/A   Mostly Cloudy
3:34 AM 24.4 °F 12.4 °F 14.2 °F 65% 29.92 in 10.0 mi West 13.8 mph 17.3 mph N/A   Mostly Cloudy
3:54 AM 24.6 °F 12.7 °F 13.8 °F 64% 29.92 in 10.0 mi West 13.8 mph 18.4 mph N/A   Overcast
4:14 AM 24.1 °F 13.1 °F 13.8 °F 65% 29.91 in 10.0 mi West 11.5 mph 17.3 mph N/A   Overcast
4:33 AM 23.9 °F 12.9 °F 14.0 °F 66% 29.91 in 10.0 mi West 11.5 mph 19.6 mph N/A   Overcast
4:53 AM 23.5 °F 13.0 °F 14.0 °F 67% 29.90 in 10.0 mi West 10.4 mph 17.3 mph N/A   Overcast
5:14 AM 22.6 °F 11.3 °F 14.2 °F 70% 29.90 in 10.0 mi West 11.5 mph 16.1 mph N/A   Scattered Clouds
5:33 AM 22.5 °F 11.7 °F 14.5 °F 72% 29.91 in 10.0 mi West 10.4 mph - N/A   Mostly Cloudy
5:54 AM 22.6 °F 12.6 °F 15.3 °F 73% 29.91 in 10.0 mi West 9.2 mph - N/A   Overcast
6:13 AM 22.5 °F 13.2 °F 16.2 °F 77% 29.91 in 10.0 mi West 8.1 mph - N/A Snow Light Snow
6:33 AM 22.1 °F 12.8 °F 16.5 °F 79% 29.91 in 10.0 mi WSW 8.1 mph - N/A Snow Light Snow
6:54 AM 22.1 °F 13.7 °F 17.1 °F 81% 29.91 in 7.0 mi WSW 6.9 mph - N/A Snow Light Snow
7:14 AM 21.2 °F 12.6 °F 16.2 °F 81% 29.91 in 10.0 mi WSW 6.9 mph - N/A   Overcast
7:33 AM 20.8 °F 10.4 °F 15.6 °F 80% 29.91 in 10.0 mi West 9.2 mph - N/A Snow Light Snow
7:54 AM 21.4 °F 10.4 °F 15.4 °F 78% 29.92 in 10.0 mi West 10.4 mph - N/A   Overcast
8:13 AM 20.8 °F 13.2 °F 15.1 °F 78% 29.92 in 10.0 mi West 5.8 mph - N/A   Overcast
8:34 AM 21.7 °F 12.3 °F 15.1 °F 76% 29.92 in 10.0 mi West 8.1 mph - N/A   Overcast
8:54 AM 22.1 °F 12.8 °F 15.6 °F 76% 29.92 in 10.0 mi West 8.1 mph - N/A   Overcast
9:13 AM 22.6 °F 10.7 °F 16.0 °F 76% 29.93 in 10.0 mi WSW 12.7 mph 16.1 mph N/A   Overcast
9:33 AM 23.2 °F 12.6 °F 16.0 °F 74% 29.93 in 10.0 mi WSW 10.4 mph 18.4 mph N/A   Overcast
9:53 AM 23.2 °F 10.8 °F 14.9 °F 71% 29.93 in 10.0 mi West 13.8 mph 18.4 mph N/A   Overcast
10:14 AM 23.5 °F 10.8 °F 14.7 °F 69% 29.92 in 10.0 mi West 15.0 mph 19.6 mph N/A   Overcast
10:33 AM 23.9 °F 10.8 °F 14.0 °F 66% 29.92 in 10.0 mi West 16.1 mph 23.0 mph N/A   Overcast
10:53 AM 24.1 °F 10.6 °F 13.5 °F 64% 29.92 in 10.0 mi West 17.3 mph 23.0 mph N/A   Overcast
11:14 AM 24.4 °F 12.4 °F 12.9 °F 62% 29.92 in 10.0 mi West 13.8 mph 19.6 mph N/A   Overcast
11:34 AM 25.3 °F 13.6 °F 12.9 °F 59% 29.92 in 10.0 mi West 13.8 mph 21.9 mph N/A   Overcast
11:53 AM 24.8 °F 12.9 °F 12.6 °F 60% 29.92 in 10.0 mi West 13.8 mph 24.2 mph N/A   Overcast
12:14 PM 24.3 °F 12.7 °F 12.4 °F 61% 29.92 in 10.0 mi West 12.7 mph 21.9 mph N/A   Overcast
12:34 PM 23.5 °F 10.3 °F 12.4 °F 62% 29.92 in 10.0 mi West 16.1 mph 20.7 mph N/A   Overcast
12:54 PM 23.4 °F 10.1 °F 14.4 °F 68% 29.93 in 7.0 mi West 16.1 mph 21.9 mph N/A Snow Light Snow
1:11 PM 23.9 °F 10.8 °F 14.5 °F 67% 29.93 in 10.0 mi West 16.1 mph 20.7 mph N/A Snow Light Snow
1:34 PM 22.8 °F 8.9 °F 14.2 °F 69% 29.93 in 7.0 mi West 17.3 mph - N/A Snow Light Snow
1:53 PM 21.9 °F 8.2 °F 13.8 °F 71% 29.93 in 3.0 mi West 16.1 mph 21.9 mph N/A Snow Light Snow
2:13 PM 22.6 °F 9.6 °F 15.3 °F 73% 29.92 in 3.0 mi West 15.0 mph 19.6 mph N/A Snow Light Snow
2:33 PM 25.5 °F 12.4 °F 14.0 °F 62% 29.92 in 10.0 mi West 17.3 mph 25.3 mph N/A   Overcast
2:53 PM 25.2 °F 12.9 °F 14.9 °F 65% 29.92 in 10.0 mi West 15.0 mph 24.2 mph N/A   Overcast
3:14 PM 21.4 °F 6.6 °F 10.6 °F 63% 29.92 in 10.0 mi West 18.4 mph 25.3 mph N/A Snow Light Snow
3:33 PM 22.1 °F 8.9 °F 10.6 °F 61% 29.92 in 10.0 mi West 15.0 mph 21.9 mph N/A   Overcast
3:54 PM 23.4 °F 10.6 °F 10.4 °F 58% 29.91 in 10.0 mi WSW 15.0 mph 21.9 mph N/A   Overcast
4:14 PM 23.5 °F 10.3 °F 10.8 °F 58% 29.92 in 10.0 mi West 16.1 mph 21.9 mph N/A   Mostly Cloudy
4:33 PM 21.9 °F 8.2 °F 11.7 °F 65% 29.92 in 5.0 mi West 16.1 mph 20.7 mph N/A Snow Light Snow
4:54 PM 21.4 °F 7.1 °F 11.5 °F 66% 29.92 in 10.0 mi West 17.3 mph 20.7 mph N/A   Overcast
5:14 PM 21.2 °F 7.8 °F 10.9 °F 65% 29.93 in 10.0 mi West 15.0 mph - N/A Snow Light Snow
5:33 PM 20.7 °F 8.2 °F 11.3 °F 67% 29.93 in 5.0 mi West 12.7 mph - N/A Snow Light Snow
5:53 PM 21.0 °F 8.1 °F 11.3 °F 66% 29.93 in 7.0 mi West 13.8 mph - N/A   Overcast
6:14 PM 20.7 °F 10.2 °F 13.8 °F 75% 29.93 in 5.0 mi WNW 9.2 mph - N/A Snow Light Snow
6:33 PM 20.5 °F 6.4 °F 11.8 °F 69% 29.93 in 10.0 mi West 16.1 mph 19.6 mph N/A   Overcast
6:53 PM 19.9 °F 5.7 °F 12.4 °F 72% 29.94 in 7.0 mi WNW 16.1 mph - N/A   Overcast
7:13 PM 19.0 °F 8.2 °F 12.0 °F 74% 29.94 in 7.0 mi West 9.2 mph 16.1 mph N/A Snow Light Snow
7:34 PM 18.9 °F 6.5 °F 12.6 °F 76% 29.95 in 10.0 mi West 11.5 mph 18.4 mph N/A   Overcast
7:54 PM 18.9 °F 6.5 °F 13.3 °F 79% 29.95 in 4.0 mi West 11.5 mph 18.4 mph N/A Snow Light Snow
8:13 PM 18.1 °F 6.3 °F 13.6 °F 83% 29.95 in 3.0 mi WNW 10.4 mph - N/A Snow Light Snow
8:34 PM 18.0 °F 6.9 °F 12.6 °F 79% 29.95 in 4.0 mi West 9.2 mph - N/A Snow Light Snow
8:54 PM 16.7 °F 5.3 °F 12.6 °F 84% 29.95 in 10.0 mi West 9.2 mph - N/A   Scattered Clouds
9:13 PM 15.8 °F 6.1 °F 11.8 °F 84% 29.95 in 10.0 mi West 6.9 mph - N/A   Clear
9:34 PM 15.3 °F 4.4 °F 11.3 °F 84% 29.95 in 10.0 mi West 8.1 mph - N/A   Clear
9:53 PM 14.7 °F 4.8 °F 10.8 °F 84% 29.95 in 10.0 mi West 6.9 mph - N/A   Clear
10:13 PM 14.4 °F 4.3 °F 10.8 °F 86% 29.95 in 10.0 mi West 6.9 mph - N/A   Clear
10:34 PM 14.2 °F 5.3 °F 10.4 °F 85% 29.94 in 10.0 mi West 5.8 mph - N/A   Scattered Clouds
10:53 PM 14.2 °F 5.3 °F 10.4 °F 85% 29.94 in 10.0 mi West 5.8 mph - N/A   Mostly Cloudy
11:14 PM 14.0 °F 6.5 °F 10.4 °F 86% 29.94 in 10.0 mi West 4.6 mph - N/A   Scattered Clouds
11:34 PM 14.0 °F 5.1 °F 10.6 °F 86% 29.94 in 10.0 mi WSW 5.8 mph - N/A   Clear
11:53 PM 13.5 °F 5.8 °F 10.2 °F 87% 29.93 in 10.0 mi WSW 4.6 mph - N/A   Clear